Flag for USA

Past Weather in Baltimore, Maryland, USA — Yesterday and Last 2 Weeks

Now
85 °F

Scattered clouds.


Feels Like: 89 °F
Forecast: 88 / 74 °F
Wind: 9 mph from East

Location: Baltimore-Washington International Airport

Current Time: Jul 9, 2020 at 11:33:52 am

Latest Report: Jul 9, 2020 at 10:54 am


Visibility: 10 mi

Pressure: 29.98 "Hg

Humidity: 61%

Dew Point: 70 °F

Location of BaltimoreLocation

Past Weather in Baltimore — Graph

°F

Baltimore Temperature Yesterday

Maximum temperature yesterday: 90 °F (at 2:54 pm)
Minimum temperature yesterday: 75 °F (at 5:54 am)
Average temperature yesterday: 83 °F

High & Low Weather Summary for the Past Weeks

 TemperatureHumidityPressure
High96 °F (Jul 3, 1:54 pm)93% (Jun 25, 10:54 pm)30.11 "Hg (Jun 25, 10:54 pm)
Low63 °F (Jun 26, 4:54 am)34% (Jul 3, 1:54 pm)29.70 "Hg (Jun 28, 5:54 pm)
Average80 °F65%29.90 "Hg
* Reported Jun 24 9:54 am — Jul 9 9:54 am, Baltimore. Weather by CustomWeather, © 2020

Note: Actual official high and low records may vary slightly from our data, if they occured in-between our weather recording intervals... More about our weather records

Baltimore Weather History for the Previous 24 Hours

Scroll right to see more
 ConditionsComfort  
Time TempWeatherWind HumidityBarometerVisibility
9:54 am
Thu, Jul 9
83 °FScattered clouds.9 mph68%29.98 "Hg10 mi
8:54 am81 °FScattered clouds.7 mph77%29.98 "Hg10 mi
7:54 am78 °FScattered clouds.5 mph87%29.98 "Hg10 mi
6:54 am76 °FPassing clouds.3 mph88%29.97 "Hg8 mi
6:24 am75 °FScattered clouds.No wind88%29.97 "Hg10 mi
5:54 am74 °FPartly sunny.No wind88%29.95 "Hg10 mi
4:54 am72 °FPassing clouds.5 mph91%29.94 "Hg10 mi
3:54 am74 °FPassing clouds.No wind88%29.93 "Hg10 mi
2:54 am74 °FPassing clouds.No wind88%29.95 "Hg10 mi
1:54 am76 °FPassing clouds.No wind82%29.94 "Hg10 mi
12:54 am78 °FPassing clouds.No wind76%29.93 "Hg10 mi
11:54 pm
Wed, Jul 8
78 °FPassing clouds.3 mph74%29.93 "Hg10 mi
10:54 pm79 °FPassing clouds.5 mph72%29.94 "Hg10 mi
9:54 pm81 °FPassing clouds.3 mph65%29.95 "Hg10 mi
8:54 pm83 °FPassing clouds.No wind63%29.94 "Hg10 mi
7:54 pm85 °FScattered clouds.6 mph57%29.92 "Hg10 mi
6:54 pm87 °FScattered clouds.6 mph46%29.92 "Hg10 mi
5:54 pm88 °FScattered clouds.8 mph46%29.92 "Hg10 mi
4:54 pm90 °FScattered clouds.8 mph47%29.92 "Hg10 mi
3:54 pm90 °FScattered clouds.8 mph47%29.93 "Hg10 mi
2:54 pm90 °FScattered clouds.7 mph47%29.95 "Hg10 mi
1:54 pm89 °FScattered clouds.8 mph50%29.96 "Hg10 mi
12:54 pm88 °FScattered clouds.6 mph55%29.98 "Hg10 mi
11:54 am88 °FScattered clouds.5 mph57%29.99 "Hg10 mi
Weather by CustomWeather, © 2020

See weather overview